Regional Weather Roundup
Issued by NWS

Home | Current Version | Previous Version | Text Only | Print | Product List | Glossary On
Versions: 1 2 3 4 5 6 7 8 9 10 11 12 13 14 15 16 17 18 19 20 21 22 23 24 25 26 27 28 29 30 31 32 33 34 35 36 37 38 39 40 41 42 43 44 45 46 47 48 49 50
000
ASUS43 KDTX 291201
RWRMI
MICHIGAN HOURLY REGIONAL WEATHER ROUNDUP
NATIONAL WEATHER SERVICE DETROIT/PONTIAC MI
800 AM EDT SUN MAR 29 2015

NOTE: "FAIR" INDICATES FEW OR NO CLOUDS BELOW 12,000 FEET WITH NO
SIGNIFICANT WEATHER AND/OR OBSTRUCTION TO VISIBILITY.

MIZ047>049-052>055-059>063-066>070-074>076-081>083-291300-
SOUTHEAST LOWER MICHIGAN

CITY           SKY/WX    TMP DP  RH WIND       PRES   REMARKS
ADRIAN         CLEAR     22  16  78 SW8       30.27S WCI  12
6HR MIN TEMP:  20; 6HR MAX TEMP:  24;

ALMA           PTCLDY    24  16  71 S7        30.17F WCI  16
6HR MIN TEMP:  21; 6HR MAX TEMP:  24;

ANN ARBOR      CLEAR     13  11  92 CALM      30.25S
BAD AXE        CLEAR     25  12  58 SW7       30.19F WCI  17
CARO           CLEAR     22  13  68 S5        30.20R WCI  16
DETROIT CITY   CLEAR     25  14  63 SW6       30.27R WCI  18
6HR MIN TEMP:  23; 6HR MAX TEMP:  26;

DETROIT        PTCLDY    23  16  74 S7        30.29R WCI  15
6HR MIN TEMP:  20; 6HR MAX TEMP:  24;

FLINT          CLEAR     26  12  55 S8        30.21F WCI  18
6HR MIN TEMP:  23; 6HR MAX TEMP:  26;

GROSSE ILE     CLEAR     25  16  68 SW7       30.28R WCI  17
HILLSDALE      PTCLDY    22  14  70 S7        30.22S WCI  14
HOWELL         CLEAR     23  13  65 S5        30.21F WCI  17
6HR MIN TEMP:  19; 6HR MAX TEMP:  23;


CITY           SKY/WX    TMP DP  RH WIND       PRES   REMARKS
JACKSON        CLEAR     23  13  65 S8        30.22S WCI  14
6HR MIN TEMP:  18; 6HR MAX TEMP:  23;

LAMBERTVILLE   CLEAR     27  18  69 SW5       30.29R WCI  21
LANSING        CLEAR     24  13  62 S9        30.21S WCI  14
6HR MIN TEMP:  21; 6HR MAX TEMP:  24;

LAPEER         FAIR      22  13  66 S7        30.21F WCI  14
MASON          CLEAR     23  13  66 S5        30.21F WCI  17
MT. CLEMENS    PTCLDY    23  15  69 SW7       30.23R WCI  15
6HR MIN TEMP:  19; 6HR MAX TEMP:  23;

PONTIAC        PTCLDY    18  11  74 S3        30.22S
6HR MIN TEMP:  16; 6HR MAX TEMP:  22;

PORT HOPE        N/A     26  11  52 S6        30.17S WCI  19
6HR MIN TEMP:  25; 6HR MAX TEMP:  28;

PORT HURON     CLEAR     18  16  93 CALM      30.26R
TRI CITIES     CLEAR     24  12  60 S10       30.19F WCI  14
6HR MIN TEMP:  22; 6HR MAX TEMP:  26;

TROY           CLEAR     23  13  66 CALM      30.27S
SAGINAW HB     CLEAR     27  16  63 S12       30.19F WCI  16
$$
MIZ043>046-050>051-056>058-064>065-071>073-077>080-291300-
SOUTHWEST LOWER MICHIGAN

CITY           SKY/WX    TMP DP  RH WIND       PRES   REMARKS
BATTLE CREEK   PTCLDY    25  15  66 S10       30.20F WCI  15
6HR MIN TEMP:  20; 6HR MAX TEMP:  25;

BENTON HARBOR  PTCLDY    28  16  60 S13       30.15F WCI  17
6HR MIN TEMP:  18; 6HR MAX TEMP:  28;

BIG RAPIDS     PTCLDY    21   8  58 CALM      30.11R
6HR MIN TEMP:  19; 6HR MAX TEMP:  22;

COLDWATER      PTCLDY    25  14  63 S8        30.21F WCI  16
6HR MIN TEMP:  18; 6HR MAX TEMP:  25;

FREMONT        FAIR      25  11  54 S9        30.12S WCI  16
6HR MIN TEMP:  19; 6HR MAX TEMP:  26;

HOLLAND        MOCLDY    27  15  61 S10       30.15F WCI  17
6HR MIN TEMP:  20; 6HR MAX TEMP:  27;

GRAND RAPIDS   MOCLDY    25  14  63 S14       30.16F WCI  13
6HR MIN TEMP:  18; 6HR MAX TEMP:  25;

IONIA          FAIR      25  16  67 S9        30.16F WCI  16
KALAMAZOO      PTCLDY    26  16  65 S10       30.19F WCI  16
6HR MIN TEMP:  20; 6HR MAX TEMP:  26;

LUDINGTON      MOCLDY    31  23  73 S9        30.10R WCI  23
6HR MIN TEMP:  24; 6HR MAX TEMP:  31;

MARSHALL       PTCLDY    24  14  66 S6        30.21S WCI  17
MOUNT PLEASANT PTCLDY    22  11  62 S8        30.14F WCI  13
6HR MIN TEMP:  20; 6HR MAX TEMP:  24;

MUSKEGON       MOCLDY    31  20  63 S15G21    30.14F WCI  20
6HR MIN TEMP:  19; 6HR MAX TEMP:  31;

SOUTH HAVEN    MOCLDY    29  16  57 S13G21    30.16F WCI  19
$$
MIZ016>042-291300-
NORTHERN LOWER MICHIGAN

CITY           SKY/WX    TMP DP  RH WIND       PRES   REMARKS
ALPENA         CLEAR     23   6  48 S3        30.10F
6HR MIN TEMP:  16; 6HR MAX TEMP:  23;

BEAVER ISLAND  MOCLDY    28  22  76 S8G18     30.01F WCI  20
6HR MIN TEMP:  26; 6HR MAX TEMP:  28;

BELLAIRE       PTCLDY    27  10  49 S3        30.08S
6HR MIN TEMP:  22; 6HR MAX TEMP:  27;

CADILLAC       PTCLDY    22   6  50 S6        30.05S WCI  15
CHARLEVOIX     MOCLDY    27  13  54 S9G16     30.08R WCI  18
6HR MIN TEMP:  25; 6HR MAX TEMP:  27;

FRANKFORT      PTCLDY    32  20  61 S13G20    30.07R WCI  23
GAYLORD        PTCLDY    22   5  48 S10       30.04S WCI  11
6HR MIN TEMP:  20; 6HR MAX TEMP:  23;

GRAYLING       FAIR      23   4  43 S8        30.07F WCI  14
6HR MIN TEMP:  20; 6HR MAX TEMP:  23;

HARBOR SPRINGS MOCLDY    25  11  53 CALM      30.05S
HOUGHTON LAKE  MOCLDY    22   0  38 S8        30.09F WCI  12
6HR MIN TEMP:  19; 6HR MAX TEMP:  23;

MANISTEE       MOCLDY    27  18  69 SE5       30.09R WCI  21
OSCODA         CLEAR     20  13  72 SW9       30.15F WCI  10
PELLSTON       MOCLDY    28  11  48 S10       30.05S WCI  19
6HR MIN TEMP:  24; 6HR MAX TEMP:  28;

ROGERS CITY    PTCLDY    23  10  58 S9        30.08S WCI  13
TRAVERSE CITY  MOCLDY    29  13  51 VRB6      30.06S WCI  23
6HR MIN TEMP:  26; 6HR MAX TEMP:  29;

$$
MIZ007>008-015-291300-
EASTERN UPPER MICHIGAN

CITY           SKY/WX    TMP DP  RH WIND       PRES   REMARKS
KINROSS        PTCLDY    23  18  80 S8        30.00F WCI  14
6HR MIN TEMP:  19; 6HR MAX TEMP:  23;

MACKINAC ISLAN MOCLDY    26  13  58 S12G17    30.02F WCI  16
6HR MIN TEMP:  22; 6HR MAX TEMP:  26;

NEWBERRY       PTCLDY    26  25  95 S13G20    29.94F WCI  15
S. S. MARIE    MOCLDY    15   8  73 E5        30.00F WCI   8
6HR MIN TEMP:  14; 6HR MAX TEMP:  17;

$$
MIZ004>006-011>014-085-291300-
CENTRAL UPPER MICHIGAN

CITY           SKY/WX    TMP DP  RH WIND       PRES   REMARKS
MANISTIQUE     PTCLDY    32  27  83 S18G28    29.95F WCI  20
ESCANABA       MOCLDY    30  19  64 S17G24    29.93F WCI  18
6HR MIN TEMP:  28; 6HR MAX TEMP:  30;

MENOMINEE      PTCLDY    30  18  59 SW14      29.95F WCI  20
6HR MIN TEMP:  28; 6HR MAX TEMP:  30;

SAWYER-GWINN   PTCLDY    27  16  63 S18       29.82F WCI  13
$$
MIZ001>003-009>011-084-291300-
WESTERN UPPER MICHIGAN

CITY           SKY/WX    TMP DP  RH WIND       PRES   REMARKS
IRON MOUNTAIN  MOCLDY    29  14  53 S12       29.83F WCI  19
6HR MIN TEMP:  28; 6HR MAX TEMP:  29;

HOUGHTON       CLOUDY    32  15  49 S15       29.64F WCI  22
6HR MIN TEMP:  28; 6HR MAX TEMP:  33;

COPPER HARBOR    N/A     34  19  54 SW14G23   29.67F WCI  25
6HR MIN TEMP:  30; 6HR MAX TEMP:  34;

IRONWOOD       MOCLDY    34  19  55 S14G26    29.57F WCI  24
6HR MIN TEMP:  34; 6HR MAX TEMP:  34;

$$

ABBREVIATIONS USED IN REMARKS
   TC - TEMPERATURE IN CELSIUS
  WCI - WIND CHILL INDEX
   HX - HEAT INDEX
  VSB - VISIBILITY



USA.gov is the U.S. government's official web portal to all federal, state and local government web resources and services.